Regional Weather Roundup
Issued by NWS Huntsville, AL

Home | Current Version | Previous Version | Text Only | Print | Product List | Glossary On
Versions: 1 2 3 4 5 6 7 8 9 10 11 12 13 14 15 16 17 18 19 20 21 22 23 24 25 26 27 28 29 30 31 32 33 34 35 36 37 38 39 40 41 42 43 44 45 46 47 48 49 50
000
ASUS44 KHUN 301610
RWRHUN

WEATHER ROUNDUP FOR THE TENNESSEE VALLEY
NATIONAL WEATHER SERVICE HUNTSVILLE AL
1100 AM CDT SUN AUG 30 2015

ALZ001>004-301700-
NORTHWEST ALABAMA

CITY           SKY/WX    TMP DP  RH WIND       PRES   REMARKS
COURTLAND HCN    N/A     70 N/A N/A SE5         N/A
BANKHEAD NF      N/A     73  73 100 E1          N/A
RUSSELLVILLE     N/A     70 N/A N/A MISG        N/A
SHOALS AIRPORT CLOUDY    72  68  87 SE8       30.16R
SHOALS TVA RES   N/A     72 N/A N/A MISG        N/A
$$

ALZ005>007-016-301700-
NORTH CENTRAL ALABAMA

CITY           SKY/WX    TMP DP  RH WIND       PRES   REMARKS
DECATUR AP     CLOUDY    73  69  87 CALM      30.17R
HUNTSVILLE AP  CLOUDY    76  67  73 SE9       30.16R
HUN NWS/UAH      N/A     73  64  73 SE6         N/A
MERIDIANVILLE  CLOUDY    72  63  73 SE5       30.17R
REDSTONE ARSN  CLOUDY    73  67  82 E7        30.16R
VINEMONT AP    RAIN      68  66  94 CALM      30.18R
$$

ALZ008>010-301700-
NORTHEAST ALABAMA

CITY           SKY/WX    TMP DP  RH WIND       PRES   REMARKS
ALBERTVILLE    RAIN      66  66 100 NE6       30.16S
FORT PAYNE     CLOUDY    70  64  83 CALM      30.16S
SCOTTSBORO AP  LGT RAIN  70  68  94 CALM      30.18R
SCOTTSBORO HCN   N/A     70 N/A N/A MISG        N/A
VALLEY HEAD      N/A     70 N/A N/A MISG        N/A
$$

TNZ076-096-097-301700-
SOUTHEASTERN MIDDLE TENNESSEE

CITY           SKY/WX    TMP DP  RH WIND       PRES   REMARKS
TULLAHOMA      CLOUDY    70  64  83 CALM      30.20R
WINCHESTER     PTSUNNY   73  64  73 SE9       30.19R
$$

...SURROUNDING SITES...

CITY           SKY/WX    TMP DP  RH WIND       PRES   REMARKS
ATLANTA        CLOUDY    69  63  81 NE15      30.16S
ANNISTON       CLOUDY    73  68  84 NE9       30.13R
BIRMINGHAM     CLOUDY    73  68  84 E6        30.14S
CHATTANOOGA    CLOUDY    75  67  76 NE6       30.17S
DALTON         CLOUDY    72  68  88 CALM      30.17F
GADSDEN        CLOUDY    73  64  73 E10       30.13S
GOLDEN TRNGL   PTSUNNY   77  68  73 SE9       30.10R
HALEYVILLE     LGT RAIN  70  70 100 CALM      30.18S
JACKSON TN     MOSUNNY   79  69  71 S7        30.10S
MEMPHIS        CLOUDY    79  70  74 SW3       30.08R
NASHVILLE      CLOUDY    78  65  63 SE10      30.16R
OXFORD MS      FAIR      81  68  65 SE3       30.10S
ROME           CLOUDY    71  63  75 SE3       30.17R
SAVANNAH       CLOUDY    79  32  18 S8        30.13R
TUPELO         MOSUNNY   80  69  69 S6        30.10R
TUSCALOOSA     RAIN      72  70  93 E3        30.13R FOG
$$

...GULF COAST WEATHER...

CITY           SKY/WX    TMP DP  RH WIND       PRES   REMARKS
GULFPORT       MOSUNNY   85  65  51 CALM      30.06S
PASCAGOULA     MOSUNNY   87  69  54 VRB3      30.07S HX  91
MOBILE         PTSUNNY   85  69  58 NW6       30.09R
GULF SHORES    PTSUNNY   84  76  75 E5        30.07R HX  93
PENSACOLA      SUNNY     85  73  67 SE6       30.06S HX  91
DESTIN         SUNNY     87  68  52 NE6       30.08R HX  90
PANAMA CITY    SUNNY     82  72  72 N5        30.07R
APPALACHICOLA  PTSUNNY   83  75  77 N6        30.06R HX  90
$$




USA.gov is the U.S. government's official web portal to all federal, state and local government web resources and services.